Location: Puerto Pe�asco
(31.3170°N, 113.5330°W)
Time: 17:14:31
(UTC-07:00)

Daily predictions for brighter satellites

Satellite Brightness Start Highest point End
(mag) Time Altitude Azimuth Time Altitude Azimuth Time Altitude Azimuth
Meteor 2-16 Rocket 4.5 18:17:04 10° N 18:23:13 86° E 18:29:20 10° S
CZ-4 R/B 1.5 18:20:38 10° SSE 18:24:50 80° ENE 18:29:05 10° N
Cosmos 2221 3.2 18:20:48 10° NNW 18:25:08 63° W 18:29:27 10° S
ATLAS 2AS CENTAUR R/B 3.5 18:18:42 10° NW 18:26:20 64° WSW 18:33:15 10° SSE
Lacrosse 5 3.4 18:23:58 10° SSE 18:27:30 19° ESE 18:31:01 10° ENE
SeaSat 1 3.0 18:23:40 10° SSE 18:28:33 66° WSW 18:33:28 10° NNW
Meteor 1-11 4.3 18:29:25 10° S 18:34:53 60° E 18:40:25 10° NNE
Cosmos 2151 3.8 18:31:16 10° SSE 18:34:57 29° E 18:38:40 10° NNE
Cosmos 1346 Rocket 3.6 18:31:40 10° NNE 18:35:04 29° ENE 18:38:28 10° SE
Cosmos 1315 Rocket 3.3 18:31:17 10° SSW 18:35:10 62° W 18:39:04 10° N
COSMOS 2406 3.3 18:31:11 10° S 18:36:49 61° ESE 18:42:26 10° NNE
Cosmos 1455 3.5 18:37:03 10° NNE 18:39:53 19° ENE 18:42:40 10° SE
CZ-4C R/B 3.4 18:36:52 10° SSE 18:40:09 18° ESE 18:43:02 12° ENE
Hubble Space Telescope 2.8 18:37:53 10° SSW 18:40:32 17° SSE 18:43:11 10° ESE
Cosmos 1408 Rocket 3.6 18:38:35 10° S 18:42:53 82° W 18:47:11 10° N
Centaur AC-64 3.9 18:43:36 10° SSW 18:45:07 15° SSE 18:47:17 10° ESE
OAO 3 Rocket 3.2 18:40:28 10° WNW 18:45:07 65° N 18:49:18 13° E
Cosmos 2098 Rocket 4.2 18:42:11 10° N 18:47:51 49° E 18:54:34 10° SSE
Cosmos 1626 2.4 18:44:24 10° SSW 18:48:05 71° W 18:51:48 10° N
NOSS 3-4 (A) 4.0 18:42:16 10° NNW 18:49:17 54° ENE 18:56:45 10° SE
NOSS 3-4 (C) 4.0 18:42:23 10° NNW 18:49:23 53° ENE 18:56:51 10° SE
Cosmos 1515 Rocket 4.4 18:45:45 10° NNE 18:49:29 28° E 18:53:11 10° SE
SEDSat Delta rocket 4.0 18:45:04 10° W 18:51:53 88° S 18:57:13 16° E
ISS -2.1 18:50:10 10° S 18:52:27 18° SE 18:53:29 16° ESE
Cosmos 1570 Rocket 4.2 18:50:48 10° S 18:55:54 49° ESE 19:01:00 10° NNE
Cosmos 1500 Rocket 3.8 18:52:11 10° SSE 18:56:26 46° E 19:00:43 10° NNE
DMSP B5D1-3 4.4 18:52:12 10° NNE 18:57:18 78° ESE 19:02:24 10° S
COSMO-SKYMED 1 3.6 18:55:22 10° N 18:59:33 48° WNW 19:03:43 10° SSW
Cosmos 371 Rocket 3.2 18:55:34 10° S 19:00:20 72° ESE 19:05:09 10° NNE
Tiangong 1 2.2 18:59:36 10° NNW 19:01:23 19° NNE 19:01:23 19° NNE
EO 1 Del DPAF 3.4 18:58:47 10° N 19:02:37 75° WNW 19:06:25 10° SSW
NOAA 12 4.0 19:00:16 10° SSE 19:05:28 79° ENE 19:10:44 10° N
H-2A R/B 3.9 19:03:49 10° WSW 19:07:13 44° S 19:22:01 10° ESE
SL-27 R/B 3.3 19:05:40 10° SSE 19:08:38 28° E 19:08:51 28° E
ERS-2 2.2 19:05:53 10° SSE 19:09:27 53° ENE 19:13:03 10° N
Meteor 2-15 4.4 19:05:22 10° S 19:11:21 61° E 19:17:21 10° NNE
Cosmos 1743 Rocket 3.6 19:07:07 10° S 19:11:29 83° W 19:15:50 10° N
Cosmos 1703 4.3 19:13:27 10° SSW 19:17:17 48° W 19:21:09 10° N
Cosmos 2228 Rocket 3.0 19:13:59 10° N 19:18:34 72° E 19:23:07 10° SSE
Cosmos 1656 Rocket 4.1 19:13:12 10° NNW 19:18:39 65° WSW 19:24:09 10° S
Cosmos 1328 Rocket 3.6 19:15:23 10° N 19:19:43 78° W 19:24:01 10° S
Centaur D-1A AC-32 3.9 19:20:55 10° SSW 19:24:01 24° SSE 19:25:56 20° ESE
SL-24 R/B - RUBIN 2 4.1 19:19:46 10° NW 19:24:03 56° WSW 19:28:15 10° SSE
TIMED 4.3 19:22:39 10° NNW 19:27:01 72° ENE 19:31:21 10° SSE
Thor Agena Rocket 3.5 19:24:47 13° NNE 19:29:30 61° ESE 19:34:36 10° S
Meteor 2-15 Rocket 4.3 19:32:36 10° S 19:38:44 87° E 19:44:52 10° N
Cosmos 1241 Rocket 4.3 19:35:53 10° NNW 19:42:07 81° ENE 19:48:24 10° SSE
ASTRO E2 2.5 19:38:14 10° W 19:42:14 88° S 19:42:23 82° ESE
Cosmos 1151 Rocket 3.8 19:46:51 10° NNW 19:51:08 53° W 19:55:21 10° S
Cosmos 1805 Rocket 4.4 19:47:14 10° S 19:49:58 37° SSE 19:49:58 37° SSE
Cosmos 304 Rocket 3.6 19:47:21 10° SSW 19:52:07 80° ESE 19:52:34 71° NE
Cosmos 1821 Rocket 4.0 19:50:47 10° N 19:56:58 80° W 20:03:14 10° S
Cosmos 909 Rocket 3.9 19:51:19 10° NNW 19:57:49 80° ENE 20:01:14 29° SSE
Cosmos 1535 Rocket 4.3 19:52:17 10° N 19:58:25 88° E 20:04:31 10° S
Cosmos 2082 Rocket 2.4 19:56:53 10° S 20:01:32 52° SE 20:01:32 52° SE
Lacrosse 5 2.5 20:05:10 10° SW 20:10:05 49° NW 20:10:44 46° NNW
Delta 7925 Rocket 4.4 20:04:08 10° WSW 20:10:37 42° S 20:10:52 42° SSE
Cosmos 1814 Rocket 4.1 20:10:50 10° SSW 20:15:48 74° WSW 20:15:48 74° WSW
Hubble Space Telescope 2.8 20:17:26 10° WSW 20:19:17 23° SW 20:19:17 23° SW
Cosmos 1763 Rocket 4.2 20:21:14 10° SSW 20:25:08 49° SW 20:25:08 49° SW
Cosmos 1833 Rocket 3.1 20:21:28 10° SSW 20:25:53 56° SW 20:25:53 56° SW
CZ-4C R/B 3.0 20:23:14 10° SW 20:28:01 42° NW 20:28:18 42° NW
ISS -0.3 20:25:53 10° W 20:26:11 12° W 20:26:11 12° W
SEDSat Delta rocket 4.3 20:32:02 10° W 20:37:21 59° W 20:37:21 59° W
